This is the latest recevied weather packets stored in our database for station/object KJ7HSW. If no packets are shown the sender has not sent any weather packets the latest 10 day(s).
| Time | Temp. | Humidity | Pressure | Rain* | Wind** | Luminosity | Snow |
|---|---|---|---|---|---|---|---|
| 1777664681 | 22.78° C | 44% | 1015.9 hPa | 0 mm | - | 732 W/m² | - |
| 1777664378 | 23.33° C | 41% | 1015.9 hPa | 0 mm | - | 611 W/m² | - |
| 1777664076 | 23.33° C | 42% | 1016 hPa | 0 mm | - | 713 W/m² | - |
| 1777663773 | 22.78° C | 42% | 1015.8 hPa | 0 mm | - | 752 W/m² | - |
| 1777663471 | 22.78° C | 45% | 1015.9 hPa | 0 mm | - | 803 W/m² | - |
| 1777663168 | 22.78° C | 41% | 1016.3 hPa | 0 mm | - | 803 W/m² | - |
| 1777662865 | 22.78° C | 44% | 1016.2 hPa | 0 mm | - | 785 W/m² | - |
| 1777662562 | 22.22° C | 43% | 1016.3 hPa | 0 mm | - | 799 W/m² | - |
| 1777662258 | 22.78° C | 42% | 1016.4 hPa | 0 mm | - | 712 W/m² | - |
| 1777661958 | 22.78° C | 48% | 1016.4 hPa | 0 mm | - | 679 W/m² | - |
| 1777661655 | 22.22° C | 43% | 1016.5 hPa | 0 mm | - | 627 W/m² | - |
| 1777661350 | 22.22° C | 44% | 1016.5 hPa | 0 mm | - | 640 W/m² | - |
| 1777661047 | 22.22° C | 47% | 1016.5 hPa | 0 mm | - | 649 W/m² | - |
| 1777660741 | 22.22° C | 46% | 1016.5 hPa | 0 mm | - | 618 W/m² | - |
| 1777660439 | 22.22° C | 45% | 1016.4 hPa | 0 mm | - | 527 W/m² | - |
| 1777660136 | 21.67° C | 44% | 1016.6 hPa | 0 mm | - | 540 W/m² | - |
| 1777659832 | 21.67° C | 45% | 1016.6 hPa | 0 mm | - | 612 W/m² | - |
| 1777659529 | 21.67° C | 45% | 1016.6 hPa | 0 mm | - | 569 W/m² | - |
| 1777659226 | 21.67° C | 45% | 1016.4 hPa | 0 mm | - | 569 W/m² | - |
| 1777658923 | 21.67° C | 44% | 1016.6 hPa | 0 mm | - | 594 W/m² | - |
| 1777658619 | 21.67° C | 44% | 1016.6 hPa | 0 mm | - | 640 W/m² | - |
| 1777658317 | 21.67° C | 45% | 1016.8 hPa | 0 mm | - | 627 W/m² | - |
| 1777658013 | 21.67° C | 45% | 1016.7 hPa | 0 mm | - | 591 W/m² | - |
| 1777657710 | 21.11° C | 45% | 1016.7 hPa | 0 mm | - | 586 W/m² | - |
| 1777657408 | 21.11° C | 45% | 1016.8 hPa | 0 mm | - | 597 W/m² | - |
* Rain latest hour (hover to see other rain measurements)
** Current wind speed in m/s (hover to see current wind gust speed)